Norwood, MA

1:40 AM EST on February 23, 2017 (GMT -0500)
Norwood Memorial

Weather History for KOWD - November, 2013

Change the Weather History Date:

Tuesday, November 5, 2013

  Actual Average Record
Temperature  
Mean Temperature 35 °F -  
Max Temperature 51 °F 52 °F 75 °F (2015)
Min Temperature 19 °F 32 °F 19 °F (2013)
Degree Days  
Heating Degree Days 30    
Moisture  
Dew Point 24 °F    
Average Humidity 67    
Maximum Humidity 89    
Minimum Humidity 38    
Precipitation  
Precipitation 0.00 in - - ()
Sea Level Pressure  
Sea Level Pressure 30.64 in    
Wind  
Wind Speed 1 mph (SSW)    
Max Wind Speed 6 mph    
Max Gust Speed -    
Visibility 10 miles    
Events      
Averages and records for this station are not official NWS values.
T = Trace of Precipitation, MM = Missing Value Source: NWS Daily Summary

Daily Weather History Graph

Daily Weather History Graph

Search for Another Location

Airport or City:

Trip Planner

Search our weather history database for the weather conditions in past years. The results will help you decide how hot, cold, wet, or windy it might be!

Date:

Astronomy

Nov. 05, 2013 Rise Set
Actual Time 6:22 AM EST 4:33 PM EST
Civil Twilight 5:53 AM EST 5:02 PM EST
Nautical Twilight 5:20 AM EST 5:35 PM EST
Astronomical Twilight 4:47 AM EST 6:08 PM EST
Moon 8:36 AM EST (11/5) 6:29 PM EST (11/5)
Length of Visible Light 11h 09m
Length of Day
10h 10m
Waxing Crescent, 6% of the Moon is Illuminated
Nov 5
Waxing Crescent
Nov 10
First Quarter
Nov 17
Full
Nov 25
Last Quarter
Dec 2
New

Hourly Weather History & Observations

Time (EST) Temp. Windchill Dew Point Humidity Pressure Visibility Wind Dir Wind Speed Gust Speed Precip Events Conditions
12:53 AM 21.0 °F - 16.0 °F 81% 30.71 in 10.0 mi Calm Calm - N/A   Clear
1:53 AM 19.9 °F - 16.0 °F 85% 30.70 in 10.0 mi Calm Calm - N/A   Clear
2:53 AM 19.9 °F - 17.1 °F 89% 30.71 in 10.0 mi Calm Calm - N/A   Partly Cloudy
3:53 AM 21.9 °F - 18.0 °F 85% 30.70 in 10.0 mi Calm Calm - N/A   Clear
4:53 AM 21.9 °F - 18.0 °F 85% 30.70 in 10.0 mi Calm Calm - N/A   Clear
5:53 AM 21.9 °F - 19.0 °F 89% 30.71 in 10.0 mi Calm Calm - N/A   Clear
6:53 AM 21.0 °F - 18.0 °F 88% 30.71 in 10.0 mi Calm Calm - N/A   Clear
7:53 AM 28.9 °F - 25.0 °F 85% 30.72 in 10.0 mi Calm Calm - N/A   Clear
8:53 AM 35.1 °F - 27.0 °F 72% 30.72 in 10.0 mi Calm Calm - N/A   Clear
9:53 AM 42.1 °F - 24.1 °F 49% 30.70 in 10.0 mi Calm Calm - N/A   Clear
10:53 AM 46.0 °F 44.8 °F 26.1 °F 46% 30.68 in 10.0 mi ESE 3.5 mph - N/A   Clear
11:53 AM 48.9 °F - 26.1 °F 41% 30.65 in 10.0 mi Calm Calm - N/A   Clear
12:53 PM 48.9 °F - 26.1 °F 41% 30.63 in 10.0 mi SSW 5.8 mph - N/A   Clear
1:53 PM 50.0 °F - 26.1 °F 39% 30.61 in 10.0 mi SW 4.6 mph - N/A   Clear
2:53 PM 51.1 °F - 26.1 °F 38% 30.59 in 10.0 mi SSW 3.5 mph - N/A   Clear
3:53 PM 48.9 °F - 26.1 °F 41% 30.58 in 10.0 mi South 4.6 mph - N/A   Clear
4:53 PM 41.0 °F - 24.1 °F 51% 30.57 in 10.0 mi Calm Calm - N/A   Clear
5:53 PM 35.1 °F - 25.0 °F 67% 30.58 in 10.0 mi Calm Calm - N/A   Clear
6:53 PM 37.9 °F - 26.1 °F 62% 30.58 in 10.0 mi Calm Calm - N/A   Clear
7:53 PM 37.0 °F 34.5 °F 28.0 °F 70% 30.57 in 10.0 mi South 3.5 mph - N/A   Clear
8:53 PM 34.0 °F - 28.0 °F 79% 30.57 in 10.0 mi Calm Calm - N/A   Clear
9:53 PM 36.0 °F - 28.9 °F 76% 30.56 in 10.0 mi Calm Calm - N/A   Clear
10:53 PM 35.1 °F - 28.9 °F 78% 30.54 in 10.0 mi Calm Calm - N/A   Clear
11:53 PM 35.1 °F - 28.9 °F 78% 30.53 in 10.0 mi Calm Calm - N/A   Clear